Year,Month,Day,Hour,Minute,Value (Times are PST for temperature in C)
2008,02,26,00,04,7.50
2008,02,26,00,19,7.40
2008,02,26,00,35,7.60
2008,02,26,00,46,7.60
2008,02,26,00,54,7.50
2008,02,26,00,57,7.40
2008,02,26,01,09,7.40
2008,02,26,01,10,7.40
2008,02,26,01,20,7.40
2008,02,26,01,40,7.30
2008,02,26,01,54,7.30
2008,02,26,02,04,7.30
2008,02,26,02,23,7.20
2008,02,26,02,37,7.20
2008,02,26,02,55,7.10
2008,02,26,03,17,7.00
2008,02,26,03,35,6.70
2008,02,26,03,53,6.70
2008,02,26,04,11,6.60
2008,02,26,04,32,6.60
2008,02,26,04,51,6.80
2008,02,26,05,04,6.80
2008,02,26,05,24,6.80
2008,02,26,05,43,6.80
2008,02,26,05,46,6.70
2008,02,26,06,05,6.70
2008,02,26,06,21,6.60
2008,02,26,06,35,6.60
2008,02,26,06,54,6.60
2008,02,26,07,07,6.60
2008,02,26,07,23,6.60
2008,02,26,07,41,6.70
2008,02,26,08,03,6.90
2008,02,26,08,22,6.90
2008,02,26,08,31,6.90
2008,02,26,08,44,7.10
2008,02,26,09,06,7.20
2008,02,26,09,22,7.20
2008,02,26,09,32,7.30
2008,02,26,09,50,7.60
2008,02,26,10,09,7.70
2008,02,26,10,26,8.20
2008,02,26,10,46,8.20
2008,02,26,11,05,8.50
2008,02,26,11,26,9.20
2008,02,26,11,31,9.10
2008,02,26,11,47,9.20
2008,02,26,12,09,9.30
2008,02,26,12,16,9.70
2008,02,26,12,35,9.50
2008,02,26,12,56,9.30
2008,02,26,13,16,9.60
2008,02,26,13,35,9.80
2008,02,26,13,52,9.80
2008,02,26,14,11,10.00
2008,02,26,14,30,9.90
2008,02,26,14,33,9.80
2008,02,26,14,55,9.80
2008,02,26,15,14,9.80
2008,02,26,15,25,9.60
2008,02,26,15,45,9.50
2008,02,26,16,00,9.60
2008,02,26,16,01,9.60
2008,02,26,16,15,9.60
2008,02,26,16,27,9.60
2008,02,26,16,38,9.60
2008,02,26,16,50,9.60
2008,02,26,17,01,9.40
2008,02,26,17,13,9.40
2008,02,26,17,23,9.30
2008,02,26,17,32,9.20
2008,02,26,17,42,9.10
2008,02,26,17,53,8.90
2008,02,26,18,05,8.80
2008,02,26,18,17,8.60
2008,02,26,18,28,8.40
2008,02,26,18,38,8.40
2008,02,26,18,49,8.30
2008,02,26,18,58,8.30
2008,02,26,19,12,8.20
2008,02,26,19,25,8.20
2008,02,26,19,36,8.20
2008,02,26,19,48,8.20
2008,02,26,19,59,8.20
2008,02,26,20,10,8.10
2008,02,26,20,18,8.10
2008,02,26,20,19,8.10
2008,02,26,20,39,8.20
2008,02,26,20,51,8.10
2008,02,26,21,06,8.10
2008,02,26,21,18,7.70
2008,02,26,21,32,7.30
2008,02,26,21,42,7.20
2008,02,26,21,52,7.00
2008,02,26,22,02,6.70
2008,02,26,22,12,6.50
2008,02,26,22,21,6.50
2008,02,26,22,33,6.60
2008,02,26,22,45,6.30
2008,02,26,22,54,5.90
2008,02,26,23,02,5.80
2008,02,26,23,13,5.60
2008,02,26,23,21,5.40
2008,02,26,23,32,5.30
2008,02,26,23,44,5.10
2008,02,26,23,57,5.00
